Weather History for Monticello, AR

Change the Weather History Date:

Sunday, November 3, 2013

  Actual Average Record
Temperature  
Mean Temperature 49 °F -  
Max Temperature 62 °F 69 °F 85 °F (1987)
Min Temperature 37 °F 45 °F 18 °F (1951)
Degree Days  
Heating Degree Days 16    
Moisture  
Dew Point 40 °F    
Average Humidity 74    
Maximum Humidity 93    
Minimum Humidity 41    
Precipitation  
Precipitation 0.00 in - - ()
Sea Level Pressure  
Sea Level Pressure 30.22 in    
Wind  
Wind Speed 2 mph (East)    
Max Wind Speed 10 mph    
Max Gust Speed 17 mph    
Visibility 10 miles    
Events Rain    
Averages and records for this station are not official NWS values.
T = Trace of Precipitation, MM = Missing Value Source: NWS Daily Summary

Daily Weather History Graph

Daily Weather History Graph

Search for Another Location

Airport:

Trip Planner

Search our weather history database for the weather conditions in past years. The results will help you decide how hot, cold, wet, or windy it might be!

Date:

Astronomy

Nov. 03, 2013 Rise Set
Actual Time 6:27 AM CST 5:12 PM CST
Civil Twilight 6:02 AM CST 5:38 PM CST
Nautical Twilight 5:32 AM CST 6:08 PM CST
Astronomical Twilight 5:03 AM CST 6:37 PM CST
Moon 6:31 AM CST (11/3) 5:29 PM CST (11/3)
Length of Visible Light 11h 36m
Length of Day
10h 44m
New Moon, 0% of the Moon is Illuminated
Nov 3
New Moon
Nov 9
First Quarter
Nov 17
Full
Nov 25
Last Quarter
Dec 2
New

Hourly Weather History & Observations

Time (CST) Temp. Dew Point Humidity Pressure Visibility Wind Dir Wind Speed Gust Speed Precip Events Conditions
12:53 AM 42.1 °F 39.9 °F 92% 30.23 in 10.0 mi Calm Calm - 0.00 in   Clear
1:53 AM 41.0 °F 39.0 °F 93% 30.23 in 10.0 mi Calm Calm - N/A   Clear
1:53 AM 41.0 °F 39.0 °F 93% 30.23 in 10.0 mi Calm Calm - N/A   Clear
2:53 AM 39.9 °F 37.9 °F 93% 30.23 in 10.0 mi Calm Calm - 0.00 in   Clear
3:53 AM 39.0 °F 37.0 °F 93% 30.24 in 10.0 mi Calm Calm - 0.00 in Rain Light Rain
4:53 AM 39.0 °F 37.0 °F 93% 30.26 in 10.0 mi Calm Calm - 0.00 in   Clear
5:53 AM 37.9 °F 36.0 °F 93% 30.27 in 10.0 mi Calm Calm - N/A   Clear
6:53 AM 39.9 °F 37.0 °F 89% 30.27 in 10.0 mi Calm Calm - N/A   Clear
7:53 AM 46.9 °F 41.0 °F 80% 30.30 in - ENE 3.5 mph - 0.00 in   Clear
8:53 AM 52.0 °F 43.0 °F 71% 30.30 in 10.0 mi East 6.9 mph - N/A   Clear
9:53 AM 55.9 °F 42.1 °F 60% 30.29 in 10.0 mi ESE 6.9 mph - N/A   Clear
10:53 AM 59.0 °F 39.0 °F 48% 30.28 in 10.0 mi East 8.1 mph - N/A   Clear
11:53 AM 61.0 °F 37.9 °F 42% 30.26 in 10.0 mi ENE 10.4 mph - N/A   Clear
12:53 PM 60.1 °F 37.0 °F 42% 30.22 in 10.0 mi East 4.6 mph - N/A   Clear
1:53 PM 61.0 °F 37.0 °F 41% 30.18 in 10.0 mi East 10.4 mph 17.3 mph N/A   Clear
2:53 PM 61.0 °F 37.0 °F 41% 30.16 in 10.0 mi ESE 8.1 mph - N/A   Clear
3:53 PM 60.1 °F 37.9 °F 44% 30.16 in 10.0 mi East 6.9 mph - N/A   Clear
4:53 PM 57.9 °F 41.0 °F 53% 30.17 in 10.0 mi East 3.5 mph - N/A   Clear
5:53 PM 50.0 °F 43.0 °F 77% 30.18 in 10.0 mi Calm Calm - N/A   Clear
6:53 PM 48.9 °F 43.0 °F 80% 30.18 in 10.0 mi Calm Calm - N/A   Clear
7:53 PM 46.0 °F 43.0 °F 89% 30.18 in 10.0 mi Calm Calm - 0.00 in Rain Light Rain
8:53 PM 44.1 °F 41.0 °F 89% 30.19 in 10.0 mi Calm Calm - 0.00 in   Clear
9:53 PM 45.0 °F 42.1 °F 90% 30.18 in 10.0 mi Calm Calm - N/A   Clear
10:53 PM 46.9 °F 41.0 °F 80% 30.18 in 10.0 mi Calm Calm - N/A   Clear